"Pseudo-MPEC" for P10N2t2

Created 2019 Apr 22 11:07:06 UT using Find_Orb

Click here for an explanation of pseudo-MPECs

 
 Astrometry: 
     P10N2t2  C2019 04 08b*tAi)(7LjaHb3_TAstrometryPBG5I2Xredacted;*:'%vAZtcIF51
     P10N2t2  C2019 04 08Xe+okP0mlclickf[Q@1MBPT2[Hn`xn'XBD[/hereAJUK4H=!)HunF51
     P10N2t2  C2019 04 08v=HLK5-Mfor)explanationmKwO]?sst]nD8?2:6gD^clZZ;a,PnF51

Station data:
(F51) Pan-STARRS 1, Haleakala  (N20.707235 W156.255910)  US/Hawaii.
   Observers N. Primak, A. Schultz, S. Watters, J. Thiel, T. Goggia. Measurer
   PS1 Science Consortium. 1.8-m Ritchey-Chrétien + CCD.

Orbital elements:  P10N2t2
   Perihelion 2019 Sep 28.875066 +/- 98.4 TT = 21:00:05 (JD 2458755.375066)
Epoch 2019 Apr  9.0 TT = JDT 2458582.5   Earth MOID: 0.3161   Ma: 0.0953
M 255.93388011 +/- 40               (J2000 ecliptic)          AutoNEOCP
n   0.60197298 +/- 0.34             Peri.  289.59435 +/- 100
a   1.38915715 +/- 0.523            Node    27.13010 +/- 28
e   0.0981913 +/- 0.282             Incl.   17.73501 +/- 21
P   1.64/598.02d           H 22.5   G  0.15   U 12.0  SR
q 1.25275393 +/- 0.555    Q 1.52556036 +/- 33.7
From 3 observations 2019 Apr. 8 (36.3 min); mean residual 0".08
Residuals in arcseconds: 
190408 F51  .07+  .01+    190408 F51  .15-  .03-    190408 F51  .07+  .01+    

Ephemerides (geocentric):
Date (UTC) HH   RA              Dec         delta   r     elong  mag " sig PA
---- -- -- --  -------------   -----------  ------ ------ -----  --- ---- ---
2019 04 22 11  13 26 31.915   -12 03 13.34  .41391 1.4163 172.2 21.8 0.0  174
2019 04 22 12  13 26 24.881   -12 04 09.41  .41389 1.4162 172.1 21.8 0.0  174
2019 04 22 13  13 26 17.846   -12 05 05.47  .41387 1.4162 172.1 21.8 0.0  174
2019 04 22 14  13 26 10.811   -12 06 01.52  .41385 1.4161 172.0 21.8 0.0  174
2019 04 22 15  13 26 03.777   -12 06 57.57  .41383 1.4161 171.9 21.8 0.0  174
2019 04 22 16  13 25 56.742   -12 07 53.62  .41380 1.4160 171.9 21.8 0.0  174
2019 04 22 17  13 25 49.707   -12 08 49.66  .41378 1.4160 171.8 21.8 0.0  174
2019 04 22 18  13 25 42.672   -12 09 45.69  .41376 1.4159 171.7 21.8 0.0  174
2019 04 22 19  13 25 35.638   -12 10 41.72  .41374 1.4158 171.7 21.8 0.0  174
2019 04 22 20  13 25 28.603   -12 11 37.74  .41372 1.4158 171.6 21.8 0.0  174
2019 04 22 21  13 25 21.568   -12 12 33.76  .41370 1.4157 171.5 21.8 0.0  174
2019 04 22 22  13 25 14.533   -12 13 29.77  .41369 1.4157 171.5 21.8 0.0  174
2019 04 22 23  13 25 07.499   -12 14 25.78  .41367 1.4156 171.4 21.8 0.0  174
2019 04 23 00  13 25 00.465   -12 15 21.78  .41365 1.4156 171.3 21.8 0.0  174
2019 04 23 01  13 24 53.430   -12 16 17.77  .41363 1.4155 171.3 21.8 0.0  174
2019 04 23 02  13 24 46.396   -12 17 13.76  .41361 1.4154 171.2 21.8 0.0  174
2019 04 23 03  13 24 39.363   -12 18 09.74  .41360 1.4154 171.1 21.8 0.0  174
2019 04 23 04  13 24 32.329   -12 19 05.71  .41358 1.4153 171.1 21.8 0.0  174
2019 04 23 05  13 24 25.296   -12 20 01.68  .41356 1.4153 171.0 21.9 0.0  174
2019 04 23 06  13 24 18.263   -12 20 57.64  .41355 1.4152 170.9 21.9 0.0  174
2019 04 23 07  13 24 11.230   -12 21 53.59  .41353 1.4152 170.9 21.9 0.0  174
2019 04 23 08  13 24 04.197   -12 22 49.54  .41352 1.4151 170.8 21.9 0.0  173
2019 04 23 09  13 23 57.165   -12 23 45.48  .41350 1.4150 170.7 21.9 0.0  173
2019 04 23 10  13 23 50.134   -12 24 41.41  .41349 1.4150 170.7 21.9 0.0  173
2019 04 23 11  13 23 43.102   -12 25 37.34  .41348 1.4149 170.6 21.9 0.0  173
2019 04 23 12  13 23 36.071   -12 26 33.25  .41346 1.4149 170.5 21.9 0.0  173
2019 04 23 13  13 23 29.041   -12 27 29.16  .41345 1.4148 170.5 21.9 0.0  173
2019 04 23 14  13 23 22.011   -12 28 25.06  .41344 1.4148 170.4 21.9 0.0  173
2019 04 23 15  13 23 14.982   -12 29 20.96  .41342 1.4147 170.3 21.9 0.0  173
2019 04 23 16  13 23 07.953   -12 30 16.84  .41341 1.4146 170.3 21.9 0.0  173
2019 04 23 17  13 23 00.924   -12 31 12.72  .41340 1.4146 170.2 21.9 0.0  173
2019 04 23 18  13 22 53.896   -12 32 08.59  .41339 1.4145 170.1 21.9 0.0  173
2019 04 23 19  13 22 46.869   -12 33 04.45  .41338 1.4145 170.1 21.9 0.0  173
2019 04 23 20  13 22 39.843   -12 34 00.31  .41337 1.4144 170.0 21.9 0.0  173
2019 04 23 21  13 22 32.817   -12 34 56.15  .41336 1.4143 169.9 21.9 0.0  173
2019 04 23 22  13 22 25.791   -12 35 51.99  .41335 1.4143 169.9 21.9 0.0  173
2019 04 23 23  13 22 18.767   -12 36 47.81  .41334 1.4142 169.8 21.9 0.0  173
2019 04 24 00  13 22 11.743   -12 37 43.63  .41333 1.4142 169.7 21.9 0.0  173
2019 04 24 01  13 22 04.720   -12 38 39.44  .41332 1.4141 169.7 21.9 0.0  173
2019 04 24 02  13 21 57.697   -12 39 35.24  .41331 1.4141 169.6 21.9 0.0  173
2019 04 24 03  13 21 50.676   -12 40 31.03  .41330 1.4140 169.5 21.9 0.0  173
2019 04 24 04  13 21 43.655   -12 41 26.81  .41330 1.4139 169.5 21.9 0.0  173
2019 04 24 05  13 21 36.635   -12 42 22.58  .41329 1.4139 169.4 21.9 0.0  172
2019 04 24 06  13 21 29.616   -12 43 18.34  .41328 1.4138 169.3 21.9 0.0  172
2019 04 24 07  13 21 22.598   -12 44 14.10  .41328 1.4138 169.3 21.9 0.0  172
2019 04 24 08  13 21 15.581   -12 45 09.84  .41327 1.4137 169.2 21.9 0.0  172
2019 04 24 09  13 21 08.564   -12 46 05.57  .41327 1.4137 169.2 21.9 0.0  172
2019 04 24 10  13 21 01.549   -12 47 01.29  .41326 1.4136 169.1 21.9 0.0  172